{"data":{"norad_id":40016,"intl_designator":"2014-033G","name":"SAUDISAT 4","alt_names":[],"object_type":"PAYLOAD","status":"ACTIVE","operator":null,"country":"SAUD","launch_date":"2014-06-19","launch_site_code":"DLS","launch_vehicle":null,"mission":null,"orbit_class":"UNKNOWN","rcs_meters":0.442,"size_class":null,"mass_kg":null,"dimensions":null,"purposes":["tech_demo"],"wikipedia_slug":null,"has_3d_model":false,"image_url":null,"decayed_at":null,"tle_current":{"epoch":"2026-05-25T02:59:12.252768Z","epoch_age_seconds":71141,"freshness":"FRESH","line1":"1 40016U 14033G   26145.12444737  .00000625  00000+0  88979-4 0  9999","line2":"2 40016  97.7554 292.0615 0045658 146.9434 213.4647 14.79504334642665","mean_motion":14.79504334,"eccentricity":0.0045658,"inclination_deg":97.7554,"raan_deg":292.0615,"arg_perigee_deg":146.9434,"mean_anomaly_deg":213.4647,"bstar":8.8979e-5,"rev_number":64266,"period_min":97.329893999486,"perigee_km":598.88733663926,"apogee_km":662.89095981441,"semimajor_km":7009.0261482268,"source":"CELESTRAK","updated_at":"2026-05-25T13:38:24.896549Z"}}}